Regional Weather Roundup
Issued by NWS

Home | Current Version | Previous Version | Text Only | Print | Product List | Glossary On
Versions: 1 2 3 4 5 6 7 8 9 10 11 12 13 14 15 16 17 18 19 20 21 22 23 24 25 26 27 28 29 30 31 32 33 34 35 36 37 38 39 40 41 42 43 44 45 46 47 48 49 50
000
ASUS45 KABQ 280710
RWRNM
WEATHER ROUNDUP FOR NEW MEXICO
NATIONAL WEATHER SERVICE ALBUQUERQUE NM
1200 AM MST SAT FEB 28 2015

NOTE: "FAIR" MEANS FEW OR NO CLOUDS BELOW 12,000 FEET AGL WITH NO
       SIGNIFICANT WEATHER OR OBSTRUCTIONS TO VISION.

      THIS PRODUCT IS RELEASED AS TWO VERSIONS.  ONE VERSION NEAR
      THE TOP OF THE HOUR CONTAINING PRELIMINARY DATA FROM ALBUQUERQUE
      AND OTHER STATIONS.  A FINAL VERSION WITH ADDITIONAL DATA IS
      ISSUED ABOUT 10 MINUTES AFTER THE HOUR.

NMZ501-503-504-510>518-280800-
NORTHWEST PLATEAU/NORTHCENTRAL MOUNTAINS

CITY           SKY/WX    TMP DP  RH WIND       PRES   REMARKS
FARMINGTON     LGT SNOW  29  27  92 E10       29.78F FOG     WCI  20
LOS ALAMOS     FLURRIES  13  13 100 S13       29.84F WCI  -1
SANTA FE       LGT SNOW  16  11  80 SE13      29.88F WCI   2
TAOS           CLOUDY    18  12  79 S3        29.85S
ANGEL FIRE     LGT SNOW  22  20  93 SW5       29.80S WCI  16

$$
NMZ402-403-502-505>509-280800-
WESTCENTRAL MOUNTAINS/SOUTHWEST MOUNTAINS

CITY           SKY/WX    TMP DP  RH WIND       PRES   REMARKS
GALLUP         MOCLDY    30  27  88 NE7       29.76F WCI  23
GRANTS         CLOUDY    24  23  93 S10       29.82S WCI  14
SILVER CITY    CLEAR     32  23  69 NW6       29.89S WCI  26

$$
NMZ407-409-411-412-280800-
SOUTHERN DESERTS

CITY           SKY/WX    TMP DP  RH WIND       PRES   REMARKS
LORDSBURG      FAIR      39  23  52 SE17      29.84S WCI  30
DEMING         CLEAR     32  22  66 MISG      29.89R
LAS CRUCES     CLEAR     32  24  71 SE13      29.91S WCI  22
HOLLOMAN AFB   PTCLDY    28  20  71 S12       29.95F WCI  18
ALAMOGORDO     PTCLDY    27  23  86 MISG      29.97S
T OR C         CLEAR     33  27  78 CALM      29.87F

$$
NMZ519>523-280800-
CENTRAL VALLEYS/CENTRAL HIGHLANDS

CITY           SKY/WX    TMP DP  RH WIND       PRES   REMARKS
ALBUQUERQUE    LGT SNOW  21  18  88 N7        29.90F FOG     WCI  12
DOUBLE EAGLE   FLURRIES  18  15  90 NE10      29.89F WCI   6
MORIARTY ARPT  CLOUDY    15  13  89 S5        29.93F FOG     WCI   8
CLINES CORNERS FOG       12   8  84 SE12      29.86S VSB 1/2 WCI  -2
BELEN          CLOUDY    24  24  99 NE7       29.89F WCI  16
SOCORRO          N/A     30  26  84 SW6       29.90S WCI  24

$$
NMZ524>526-539-540-280800-
SOUTHCENTRAL MOUNTAINS

CITY           SKY/WX    TMP DP  RH WIND       PRES   REMARKS
RUIDOSO        FOG       12  10  92 SE10      29.93F VSB<1/4 WCI  -1

$$
NMZ527>531-280800-
NORTHEAST HIGHLANDS/NORTHEAST PLAINS

CITY           SKY/WX    TMP DP  RH WIND       PRES   REMARKS
LAS VEGAS      LGT SNOW   8   5  87 S20       29.89R FOG     WCI -11
RATON          LGT SNOW  10   7  87 S7        29.92S FOG     WCI  -1
CLAYTON        LGT SNOW  11   8  88 S17       30.02S FOG     WCI  -6

$$
NMZ532>537-280800-
EASTCENTRAL PLAINS

CITY           SKY/WX    TMP DP  RH WIND       PRES   REMARKS
TUCUMCARI      CLOUDY    15  11  83 S13       30.11S WCI   1
CANNON AFB     LGT SNOW  12   9  90 SE9       30.11F VSB 3/4 WCI  -1
CLOVIS AIRPORT CLOUDY    10   9  92 SE10      30.12F WCI  -3

$$
NMZ028-029-538-280800-
SOUTHEAST PLAINS

CITY           SKY/WX    TMP DP  RH WIND       PRES   REMARKS
ROSWELL        CLOUDY    21  18  88 SE14      30.13F WCI   8
ARTESIA          N/A     21  21 100 SE9       30.15F WCI  11
CARLSBAD       CLOUDY    23  20  88 E12       30.15F FOG     WCI  12
HOBBS          CLOUDY    16  16 100 E9        30.16F FOG     WCI   4


$$


USA.gov is the U.S. government's official web portal to all federal, state and local government web resources and services.